Location: Aalsum
(53.3404°N, 6.0062°E)
Time: 09:54:46
(UTC+00:00)

Meteor 1-24 Rocket - Pass Details

Date: 28 January 2023
Orbit: 790 x 927 km, 81.3° (Epoch: 19 March)

Event Time Altitude Azimuth Distance (km) Brightness Sun altitude
Rises 17:03:57 0° 188° (S) 3,476 7.3 -8.0°
Reaches altitude 10° 17:06:25 10° 188° (S) 2,522 6.6 -8.3°
Maximum altitude 17:12:09 83° 102° (ESE) 865 3.7 -9.1°
Drops below altitude 10° 17:17:42 10° 15° (NNE) 2,446 5.8 -9.9°
Sets 17:20:04 0° 15° (NNE) 3,365 6.5 -10.3°
